TimeMST,TemperatureF,Dew PointF,Humidity,Sea Level PressureIn,VisibilityMPH,Wind Direction,Wind SpeedMPH,Gust SpeedMPH,PrecipitationIn,Events,Conditions,WindDirDegrees,DateUTC
12:56 AM,17.1,10.0,74,30.12,10.0,NNW,6.9,-,N/A,,Clear,330,2013-01-22 07:56:00
1:56 AM,17.1,9.0,71,30.12,10.0,NW,8.1,-,N/A,,Clear,320,2013-01-22 08:56:00
2:56 AM,28.9,14.0,54,30.08,10.0,West,3.5,-,N/A,,Clear,270,2013-01-22 09:56:00
3:56 AM,32.0,14.0,48,30.05,10.0,WSW,17.3,-,N/A,,Clear,250,2013-01-22 10:56:00
4:56 AM,35.1,12.9,40,30.05,10.0,West,21.9,28.8,N/A,,Clear,270,2013-01-22 11:56:00
5:56 AM,34.0,12.9,42,30.06,10.0,West,18.4,26.5,N/A,,Clear,270,2013-01-22 12:56:00
6:56 AM,35.1,12.0,39,30.08,10.0,West,20.7,31.1,N/A,,Clear,270,2013-01-22 13:56:00
7:56 AM,30.9,12.9,47,30.08,10.0,West,11.5,-,N/A,,Clear,280,2013-01-22 14:56:00
8:56 AM,33.1,12.9,43,30.10,10.0,West,10.4,-,N/A,,Clear,280,2013-01-22 15:56:00
9:56 AM,37.9,15.1,39,30.12,10.0,WSW,8.1,-,N/A,,Clear,250,2013-01-22 16:56:00
10:56 AM,44.1,14.0,30,30.11,10.0,WNW,15.0,20.7,N/A,,Clear,290,2013-01-22 17:56:00
11:56 AM,46.0,12.9,26,30.11,10.0,NNW,3.5,-,N/A,,Clear,340,2013-01-22 18:56:00
12:56 PM,43.0,17.1,35,30.09,10.0,North,5.8,-,N/A,,Clear,350,2013-01-22 19:56:00
1:56 PM,41.0,18.0,40,30.09,10.0,North,8.1,-,N/A,,Clear,10,2013-01-22 20:56:00
2:56 PM,37.9,18.0,45,30.06,10.0,NNE,9.2,-,N/A,,Clear,30,2013-01-22 21:56:00
3:56 PM,36.0,19.0,50,30.06,10.0,NNE,6.9,-,N/A,,Clear,30,2013-01-22 22:56:00
4:56 PM,30.0,19.9,66,30.06,10.0,ESE,4.6,-,N/A,,Clear,110,2013-01-22 23:56:00
5:56 PM,27.0,19.0,72,30.09,10.0,ENE,5.8,-,N/A,,Clear,60,2013-01-23 00:56:00
6:56 PM,24.1,17.1,75,30.09,10.0,NE,4.6,-,N/A,,Clear,40,2013-01-23 01:56:00
7:56 PM,21.9,17.1,82,30.12,10.0,NNE,8.1,-,N/A,,Clear,30,2013-01-23 02:56:00
8:56 PM,21.0,17.1,85,30.13,10.0,NNW,4.6,-,N/A,,Clear,340,2013-01-23 03:56:00
9:56 PM,19.0,15.1,85,30.15,10.0,North,8.1,-,N/A,,Clear,10,2013-01-23 04:56:00
10:56 PM,16.0,12.9,88,30.16,8.0,North,12.7,-,N/A,,Clear,360,2013-01-23 05:56:00
11:56 PM,15.1,12.0,88,30.17,8.0,NNW,8.1,-,N/A,,Clear,340,2013-01-23 06:56:00